User: anonymous   Login
Location: Young's Pond
(41.2695°N, 72.7766°W)
Time: 00:09:48
(UTC-04:00)
Language:

Spot 4 - Orbit

View from above orbital plane
View from above orbital plane
View from above satellite
View from above satellite

Ground track
Ground track

The orbit data is extracted from the following two-line orbital elements,

1 25260U 98017A   18170.66611390  .00000021  00000-0  15866-4 0  9992
2 25260  98.3261 256.2913 0012263 219.6110 140.4191 14.53537788 55223
Epoch (UTC): 19 June 2018 15:59:12
Eccentricity: 0.0012263
inclination: 98.3261°
perigee height: 705 km
apogee height: 723 km
right ascension of ascending node: 256.2913°
argument of perigee: 219.6110°
revolutions per day: 14.53537788
mean anomaly at epoch: 140.4191°
orbit number at epoch: 5522

The dashed part of the orbit path shows where the satellite is in the earth's shadow,  

DLR